Washington County, Minnesota, United States
Lat: 45.02N, Lon: 92.88W
Wx Zone: MNZ063
Local Info
Past Weather Observations for Today

NOTE: This archive is for the closest National Weather Service station to Washington County. Information may differ from the station used for current weather conditions.

Click here for Long-term Archive

Time Weather Temperature Dewpoint Humidity Pressure Winds Precip Visibility
11:22
Mostly Cloudy
61°F / 16°C 52°F / 11°C 72% 29.89 in
(1012 mb)
SSE 8.1 mph
(SSE 13 kph)
- 10SM
10:53
Clear
61°F / 16°C 52°F / 11°C 72% 29.89 in
(1012 mb)
SSE 9.2 mph
(SSE 15 kph)
- 10SM
09:53
Clear
55°F / 13°C 50°F / 10°C 82% 29.89 in
(1012 mb)
SE 11.5 mph
(SE 19 kph)
- 10SM
08:53
Clear
54°F / 12°C 48°F / 9°C 82% 29.92 in
(1013 mb)
SSE 11.5 mph
(SSE 19 kph)
- 10SM
07:53
Mostly Cloudy
50°F / 10°C 46°F / 8°C 88% 29.92 in
(1013 mb)
SE 9.2 mph
(SE 15 kph)
- 10SM
06:53
Partly Cloudy
48°F / 9°C 46°F / 8°C 94% 29.92 in
(1013 mb)
SE 5.8 mph
(SE 9 kph)
- 10SM
05:53
Clear
46°F / 8°C 46°F / 8°C 100% 29.92 in
(1013 mb)
SE 5.8 mph
(SE 9 kph)
- 10SM
04:53
Clear
46°F / 8°C 46°F / 8°C 100% 29.95 in
(1014 mb)
SE 3.5 mph
(SE 6 kph)
- 7SM
03:53
Clear
Fog And Mist
46°F / 8°C 46°F / 8°C 100% 29.95 in
(1014 mb)
SSE 5.8 mph
(SSE 9 kph)
- 5SM
03:42
Partly Cloudy
Fog And Mist
46°F / 8°C 46°F / 8°C 100% 29.95 in
(1014 mb)
SSE 6.9 mph
(SSE 11 kph)
- 4SM
03:32
Mostly Cloudy
Fog And Mist
46°F / 8°C 46°F / 8°C 100% 29.95 in
(1014 mb)
SE 4.6 mph
(SE 7 kph)
- 3SM
03:26
Mostly Cloudy
Fog And Mist
46°F / 8°C 46°F / 8°C 100% 29.95 in
(1014 mb)
SE 4.6 mph
(SE 7 kph)
- 1 3/4SM
03:16
Overcast
Fog And Mist
46°F / 8°C 46°F / 8°C 100% 29.95 in
(1014 mb)
SE 6.9 mph
(SE 11 kph)
- 1 1/4SM
02:53
Obscured
Fog
46°F / 8°C 46°F / 8°C 100% 29.98 in
(1015 mb)
SE 8.1 mph
(SE 13 kph)
- 1/2SM
01:53
Obscured
Fog
46°F / 8°C 46°F / 8°C 100% 29.98 in
(1015 mb)
SSE 8.1 mph
(SSE 13 kph)
- 1/2SM
01:47
Overcast
Fog And Mist
46°F / 8°C 46°F / 8°C 100% 29.98 in
(1015 mb)
SSE 6.9 mph
(SSE 11 kph)
- 3/4SM
01:43
Mostly Cloudy
Fog And Mist
46°F / 8°C 46°F / 8°C 100% 29.98 in
(1015 mb)
SE 8.1 mph
(SE 13 kph)
- 1SM
01:39
Mostly Cloudy
Fog And Mist
46°F / 8°C 46°F / 8°C 100% 29.98 in
(1015 mb)
SSE 8.1 mph
(SSE 13 kph)
- 1 3/4SM
01:35
Mostly Cloudy
Fog And Mist
46°F / 8°C 46°F / 8°C 100% 29.98 in
(1015 mb)
SSE 8.1 mph
(SSE 13 kph)
- 3SM
01:19
Partly Cloudy
Fog And Mist
46°F / 8°C 46°F / 8°C 100% 29.98 in
(1015 mb)
SSE 9.2 mph
(SSE 15 kph)
- 4SM
00:53
Clear
Fog And Mist
46°F / 8°C 46°F / 8°C 100% 29.98 in
(1015 mb)
SE 8.1 mph
(SE 13 kph)
- 5SM
Time Weather Temperature Dewpoint Humidity Pressure Winds Precip Visibility


Weather for websites

WeatherForYou.com, LLC is not responsible for any damages or problems caused by this service. Current weather conditions are obtained from the closest station including government and personal stations which may have varying degrees of accuracy. Weather forecasts are derived from the NOAA NDFD. Like all things, this site belongs to Jesus Christ... He just trusts me to maintain it. If you have any questions or comments email webmaster@weatherforyou.com

Copyright © 2014, WeatherForYou.com LLC. All rights reserved.